JO-97
1 43803U 18099AX  24346.58962319  .00015462  00000-0  84954-3 0  9998
2 43803  97.4967  41.8355 0009514  57.2236 302.9911 15.14156555329470
Suomi 100
1 43804U 18099AY  24346.63456752  .00013748  00000-0  78693-3 0  9992
2 43804  97.5041  41.5554 0014992  55.8558 304.4092 15.12659311329440
ISAT
1 43879U 18111D   24346.69153487  .00022888  00000-0  10755-2 0  9993
2 43879  97.6065 252.3944 0013458 101.2571 259.0177 15.19529926324260
UWE-4
1 43880U 18111E   24346.64523096  .00018718  00000-0  93394-3 0  9995
2 43880  97.5993 251.8104 0016400 111.9916 248.3062 15.17446284324261
Sparrow
1 43881U 18111F   24346.72334794  .00022834  00000-0  10504-2 0  9995
2 43881  97.6177 254.7241 0009884 131.8038 228.4042 15.20303374324369
Prox-1
1 44339U 19036A   24346.63981189  .00016833  00000-0  24872-2 0  9992
2 44339  23.9968 158.3069 0006945 183.6868 176.3577 14.73623465291478
SONATE
1 44400U 19038Q   24346.56487266  .00050268  00000-0  88662-3 0  9990
2 44400  97.7126 350.4574 0011350 175.4483 184.6873 15.50175642301395
Taurus 1
1 44530U 19059C   24346.66105074  .00011147  00000-0  22771-2 0  9993
2 44530  98.5887 112.3840 0010694 228.8271 131.2007 14.61017475277626
Duchifat 3
1 44854U 19089C   24346.51009234  .00034068  00000-0  11976-2 0  9992
2 44854  36.9513  43.9568 0010993 148.0813 212.0606 15.28437181275221
TO-108
1 44881U 19093C   24346.81715431  .00002237  00000-0  26912-3 0  9993
2 44881  97.8139  60.1423 0015422 100.5321 259.7632 14.84820155269397
FloripaSat 1
1 44885U 19093G   24346.78075815  .00009848  00000-0  91078-3 0  9998
2 44885  97.8306  68.4094 0012523  87.8241 272.4413 14.94697132269857
RS-44
1 44909U 19096E   24346.50433513  .00000035  00000-0  96961-4 0  9997
2 44909  82.5215 346.9473 0217415 356.9494   3.0266 12.79736858231657
UPMSat 2
1 46276U 20061E   24346.43964781  .00037607  00000-0  75290-3 0  9994
2 46276  97.2746  51.7544 0000950 155.1358 204.9938 15.46661765237442
AmicalSat
1 46287U 20061R   24346.45225036  .00265259  00000-0  15686-2 0  9999
2 46287  97.3173  57.0240 0002839 278.8419  81.2526 15.77362729237036
SALSAT
1 46495U 20068K   24346.44109238  .00011540  00000-0  56727-3 0  9995
2 46495  97.8395 311.0169 0014911  68.2393 292.0425 15.18110537231157
CubeSX-Sirius-HSE
1 47951U 21022V   24346.64559119  .00054401  00000-0  12412-2 0  9998
2 47951  97.4403 246.1321 0007107 210.6366 149.4467 15.42689082205752
CubeSX-HSE
1 47952U 21022W   24346.83491610  .00053998  00000-0  12165-2 0  9996
2 47952  97.4399 246.4731 0007213 207.8631 152.2231 15.43069628205790
KSU-Cubesat
1 47954U 21022Y   24346.69559873  .00088687  00000-0  14379-2 0  9990
2 47954  97.4404 249.0424 0005853 180.7923 179.3321 15.52441980205669
GRBAlpha
1 47959U 21022AD  24346.66347637  .00051070  00000-0  11527-2 0  9993
2 47959  97.4402 246.4654 0007113 208.5696 151.5163 15.43027831204597
Orbicraft-Zorkiy
1 47960U 21022AE  24346.79944177  .00071950  00000-0  13288-2 0  9996
2 47960  97.4437 248.8760 0005674 194.6343 165.4744 15.48821050205427
TUBIN
1 48900U 21059X   24346.59688758  .00034878  00000-0  80916-3 0  9990
2 48900  97.6611 138.0610 0005262 175.2793 184.8504 15.42303651192148
LEDSAT
1 49069U 21073D   24346.64903053  .00035245  00000-0  93643-3 0  9997
2 49069  97.4168  57.8243 0014680  15.6585 344.5111 15.38071525183595
CUTE
1 49263U 21088D   24346.14548575  .00043722  00000-0  13082-2 0  9995
2 49263  97.4761  52.3252 0011028 173.4687 186.6701 15.34358469176626
TeikyoSat 4
1 49396U 21102B   24346.54231494  .00004273  00000-0  29509-3 0  9992
2 49396  97.4370  25.3624 0013708  35.6226 324.5914 15.06196437169431
Z-Sat
1 49399U 21102E   24346.61559997  .00007234  00000-0  42684-3 0  9993
2 49399  97.4085  27.5665 0019368  11.7514 348.4165 15.11677637169760
KOSEN 1
1 49402U 21102H   24346.62431400  .00010320  00000-0  53656-3 0  9998
2 49402  97.4004  29.8035 0016962 352.2368   7.8599 15.16125929169987
HO-113
1 50466U 21131B   24346.80209050  .00001286  00000-0  41951-3 0  9992
2 50466  98.5212  71.0480 0003410 326.9383  33.1592 14.40339386155568
IRIS-A
1 51044U 22002BN  24346.18643564  .00051934  00000-0  98574-3 0  9994
2 51044  97.3612  53.5871 0004735 117.1852 242.9881 15.48125841161637
Foresail-1
1 52766U 22057AL  24346.34286723  .00052638  00000-0  99123-3 0  9997
2 52766  97.5967 118.0513 0007294 220.8562 139.2142 15.48334716141692
SNUGLITE 2
1 52899U 22065F   24346.65567476  .00002671  00000-0  53940-3 0  9993
2 52899  98.1420 124.8013 0006884 324.0431  36.0306 14.62211731130180
IO-117
1 53106U 22080B   24346.40082951 -.00000003  00000-0  00000+0 0  9998
2 53106  70.1337 130.9545 0008301  67.0662 293.0873  6.42557702 56656
FO-118
1 54684U 22167C   24346.68906904  .00112088  00000-0  15433-2 0  9994
2 54684  97.6131 138.7021 0007624 243.5834 116.4638 15.56834368111625
SSS-2B
1 56184U 23054G   24346.76754707  .00640806  17461-3  16263-2 0  9996
2 56184  97.3318 250.1618 0006742 115.5963 244.6010 15.95445895 93766
SO-120
1 56992U 23084BU  24346.57442229  .00145718  00000-0  18225-2 0  9998
2 56992  97.5356 111.0526 0003306 114.4103 245.7498 15.59316268 83477
MRC-100
1 56993U 23084BV  24346.30449502  .00376322  00000-0  22856-2 0  9993
2 56993  97.5309 112.6725 0002145 305.3308  54.7756 15.76451500 83565
UmKA 1 (RS40S)
1 57172U 23091G   24346.59912082  .00008802  00000-0  51925-3 0  9995
2 57172  97.5887  37.0811 0014339 231.3694 128.6254 15.11703197 80254
CubeBel-2 (EU11S)
1 57175U 23091K   24346.66057936  .00012379  00000-0  68629-3 0  9997
2 57175  97.5886  37.4485 0012432 242.7429 117.2536 15.13863445 80286
VERONIKA
1 58261U 23174F   24346.66627701  .00044164  00000-0  12345-2 0  9999
2 58261  97.4415  61.2708 0008652 336.1527  23.9315 15.36518031 60806
KAFASAT
1 58317U 23174BP  24346.81534792  .00081223  00000-0  16079-2 0  9990
2 58317  97.4337  63.3690 0007474 302.5684  57.4843 15.46763383 60975
ENSO
1 58470U 23185J   24346.80620071  .00034503  00000-0  98559-3 0  9990
2 58470  97.4038  52.8018 0009891  13.8914 346.2600 15.35883260 57277
EIRSAT-1
1 58472U 23185L   24346.63304959  .00042216  00000-0  11142-2 0  9999
2 58472  97.4031  52.9966 0009156  13.3093 346.8392 15.38305194 57274
SONATE-2
1 59112U 24043Q   24346.60421882  .00017966  00000-0  68421-3 0  9994
2 59112  97.4949 109.6602 0013268  35.9986 324.2144 15.26704852 42798
MO-122
1 60209U 24125G   24346.51725450  .00020954  00000-0  79068-3 0  9992
2 60209  97.2987 195.0662 0024723  60.9817 299.3895 15.26765571 24397
GRBBeta
1 60237U 24128C   24346.30671430  .00007488  00000-0  61260-3 0  9993
2 60237  61.9942 346.8041 0030910  12.5769 347.6084 14.99753272 23130
Curium One
1 60242U 24128H   24346.60174562  .00011474  00000-0  91428-3 0  9995
2 60242  61.9846 345.8346 0031220   4.6680 355.4695 15.00373886 23187
ROBUSTA-3A
1 60243U 24128J   24346.42620542  .00011761  00000-0  94483-3 0  9993
2 60243  61.9913 346.7649 0029243   2.3189 357.8031 15.00087517 23150
CatSat
1 60246U 24125J   24346.57405284  .00016413  00000-0  64544-3 0  9997
2 60246  97.2789 195.8778 0048668  15.2902 344.9793 15.24612266 22501
CySat-1
1 61501U 98067WZ  24346.18340842  .00304815  00000-0  18385-2 0  9990
2 61501  51.6278 153.1559 0013106 272.4666  87.4834 15.76114530 10005
AO-123
1 61781U 24199AY  24346.62402743  .00012018  00000-0  49875-3 0  9993
2 61781  97.3803 210.8400 0019072 110.5854 249.7431 15.23829688 49435
